Showing default

HJS-7C, 65619

Orbit data source: Space-Track

HJS-7C, 65619 is a payload satellite owned by Zhongguo Xingwang (CN) in LEO that was launched on Tue, 16 Sep 2025 UTC via a CHANG ZHENG 2C/YZ-1S launch vehicle from the Jiuquan Satellite Launch Center, China (JSC). Payload-class satellites include a variety of spacecraft equipped with specific instruments for various scientific and technological missions. These include communications satellites like Starlink; space stations such as the ISS; scientific satellites like the Hubble; Earth observation satellites from companies like Planet Labs, Umbra, and HawkEye 360; GPS; miniature CubeSats for education and research; and military/defense satellites.

Loading next visibility...
Identifier
65619, 2025-209C
Orbit
LEO
Country
Flag of CNCN / PRC
Related business
Manufacturer
Weina
Mission
Operational Civil Communications
Bus & Motor
Unknown
Mass
~300 kg wet, ~300 kg dry
Launch date (UTC)
2025-09-16 (9 months ago)
Launch vehicle
CHANG ZHENG 2C/YZ-1S
Launch site
Jiuquan Satellite Launch Center, China (JSC)
Object type
Payload
Rocket body
Debris
Shape & HBR
Box + 2 Pan, 1.1 m
Radar Cross Section
2.320 m², Large (>1 m²)

Expand to show TLE details & history
Last TLE update: 13 hours ago

TLE from 13 hours ago
0 HJS-7C
1 65619U 25209C   26171.42404588 -.00000063  00000-0  11764-3 0  9999
2 65619  50.0011 346.7487 0002717 129.9145 230.1971 13.41463831 38078
Epoch: 2026-06-20T10:10Z
TLE epoch observation values (Epoch: 2026-06-20T10:10:37.564Z)
Latitude
-0.00003°
Longitude
-74.54672°
Altitude
1,105.642 km
Speed
7.3 km/s
True Right ascension
23h 06m 59s
True Declination
0° 00' 00"
Sunlit
Object was in daylight at epoch
Visualization orbit readout
Latitude
Unknown
Longitude
Unknown
Altitude
Unknown
Speed
Unknown
Apparent Right ascension
Unknown
Apparent Declination
Unknown
Sunlit
N/A
Visualization observer readout
Local Sidereal Time
10:17:56
Azimuth
Unknown
Elevation
Unknown
Doppler factor
Unknown
Orbital elements
Apogee altitude
1,106.574 km
Perigee altitude
1,102.508 km
Semi-major axis
7,482.678 km
Eccentricity
0.00027
Inclination
50.0011°
RAAN
346.7487°
Arg. of periapsis
129.9145°
True anomaly
230.17319°
Mean anomaly
230.1971°
Eccentric anomaly
230.18514°
Mean motion
3.35319 °/min
Orbital period
107.36 mins
BSTAR
0.00011764
Loading maneuver chart data...
Computing Atmospheric mass density...
Loading historical data...
Loading historical data...
Loading historical data...
Loading historical data...
Loading historical data...
Loading historical data...
Loading historical data...
Other satellites on launch #209 in the year 2025 (2025-09-16 UTC)

Documentation

Showing up to 5 results
|